Time,TemperatureF,DewpointF,PressureIn,WindDirection,WindDirectionDegrees,WindSpeedMPH,WindSpeedGustMPH,Humidity,HourlyPrecipIn,Conditions,Clouds,dailyrainin,SoftwareType,DateUTC
2013-04-28 00:03:00,50.4,24.4,29.88,SSE,160,0.0,0.0,36,0.00,,CLR,0.00,VWS V14.01,2013-04-28 05:03:00,
2013-04-28 00:08:00,50.4,24.4,29.88,SSE,160,0.0,0.0,36,0.00,,CLR,0.00,VWS V14.01,2013-04-28 05:08:00,
2013-04-28 00:13:00,50.2,24.3,29.88,SSE,160,0.0,0.0,36,0.00,,CLR,0.00,VWS V14.01,2013-04-28 05:13:00,
2013-04-28 00:18:00,50.2,24.3,29.85,SSE,160,0.0,0.0,36,0.00,,CLR,0.00,VWS V14.01,2013-04-28 05:18:00,
2013-04-28 00:23:00,50.0,24.8,29.85,SSE,160,0.0,0.0,37,0.00,,CLR,0.00,VWS V14.01,2013-04-28 05:23:00,
2013-04-28 00:28:00,49.8,24.6,29.85,SSE,160,0.0,0.0,37,0.00,,CLR,0.00,VWS V14.01,2013-04-28 05:28:00,
2013-04-28 00:34:00,49.3,24.1,29.85,SSE,160,0.0,0.0,37,0.00,,CLR,0.00,VWS V14.01,2013-04-28 05:34:00,
2013-04-28 00:40:00,48.9,23.8,29.85,SSE,160,0.0,0.0,37,0.00,,CLR,0.00,VWS V14.01,2013-04-28 05:40:00,
2013-04-28 00:45:00,48.7,23.6,29.85,SSE,160,0.0,0.0,37,0.00,,CLR,0.00,VWS V14.01,2013-04-28 05:45:00,
2013-04-28 00:51:00,48.2,23.8,29.85,SSE,160,0.0,0.0,38,0.00,,CLR,0.00,VWS V14.01,2013-04-28 05:51:00,
2013-04-28 00:56:00,47.8,23.5,29.85,SSE,160,0.0,0.0,38,0.00,,CLR,0.00,VWS V14.01,2013-04-28 05:56:00,
2013-04-28 01:02:00,47.5,23.2,29.85,SSE,160,0.0,0.0,38,0.00,,CLR,0.00,VWS V14.01,2013-04-28 06:02:00,
2013-04-28 01:07:00,47.3,23.6,29.85,SSE,160,0.0,0.0,39,0.00,,CLR,0.00,VWS V14.01,2013-04-28 06:07:00,
2013-04-28 01:12:00,47.1,23.5,29.85,SSE,160,0.0,0.0,39,0.00,,CLR,0.00,VWS V14.01,2013-04-28 06:12:00,
2013-04-28 01:17:00,46.9,23.3,29.85,SSE,160,0.0,0.0,39,0.00,,CLR,0.00,VWS V14.01,2013-04-28 06:17:00,
2013-04-28 01:23:00,46.9,23.9,29.85,SSE,160,0.0,0.0,40,0.00,,CLR,0.00,VWS V14.01,2013-04-28 06:23:00,
2013-04-28 01:28:00,46.8,23.7,29.85,SSE,160,0.0,0.0,40,0.00,,CLR,0.00,VWS V14.01,2013-04-28 06:28:00,
2013-04-28 01:34:00,46.8,23.7,29.85,SSE,160,0.0,0.0,40,0.00,,CLR,0.00,VWS V14.01,2013-04-28 06:34:00,
2013-04-28 01:40:00,46.8,24.3,29.85,SSE,160,0.0,0.0,41,0.00,,CLR,0.00,VWS V14.01,2013-04-28 06:40:00,
2013-04-28 01:46:00,46.8,24.3,29.85,SSE,160,0.0,0.0,41,0.00,,CLR,0.00,VWS V14.01,2013-04-28 06:46:00,
2013-04-28 01:52:00,46.8,24.3,29.85,SSE,160,0.0,0.0,41,0.00,,CLR,0.00,VWS V14.01,2013-04-28 06:52:00,
2013-04-28 01:57:00,46.8,24.9,29.85,SSE,160,0.0,0.0,42,0.00,,CLR,0.00,VWS V14.01,2013-04-28 06:57:00,
2013-04-28 02:02:00,46.2,24.4,29.85,SSE,160,0.0,0.0,42,0.00,,CLR,0.00,VWS V14.01,2013-04-28 07:02:00,
2013-04-28 02:07:00,45.9,24.1,29.85,SSE,160,0.0,0.0,42,0.00,,CLR,0.00,VWS V14.01,2013-04-28 07:07:00,
2013-04-28 02:13:00,45.5,24.3,29.85,SSE,160,0.0,0.0,43,0.00,,CLR,0.00,VWS V14.01,2013-04-28 07:13:00,
2013-04-28 02:19:00,45.1,24.0,29.82,SSE,160,0.0,0.0,43,0.00,,CLR,0.00,VWS V14.01,2013-04-28 07:19:00,
2013-04-28 02:24:00,45.1,24.0,29.82,SSE,160,0.0,0.0,43,0.00,,CLR,0.00,VWS V14.01,2013-04-28 07:24:00,
2013-04-28 02:29:00,45.1,24.5,29.82,SSE,160,0.0,0.0,44,0.00,,CLR,0.00,VWS V14.01,2013-04-28 07:29:00,
2013-04-28 02:34:00,45.1,25.1,29.82,SSE,160,0.0,0.0,45,0.00,,CLR,0.00,VWS V14.01,2013-04-28 07:34:00,
2013-04-28 02:39:00,45.1,25.6,29.82,SSE,160,0.0,0.0,46,0.00,,CLR,0.00,VWS V14.01,2013-04-28 07:39:00,
2013-04-28 02:45:00,45.3,26.3,29.82,SSE,160,0.0,0.0,47,0.00,,CLR,0.00,VWS V14.01,2013-04-28 07:45:00,
2013-04-28 02:50:00,45.5,26.5,29.82,SSE,160,0.0,0.0,47,0.00,,CLR,0.00,VWS V14.01,2013-04-28 07:50:00,
2013-04-28 02:55:00,45.5,26.5,29.82,SSE,160,0.0,0.0,47,0.00,,CLR,0.00,VWS V14.01,2013-04-28 07:55:00,
2013-04-28 03:01:00,45.5,26.5,29.82,SSE,160,0.0,0.0,47,0.00,,CLR,0.00,VWS V14.01,2013-04-28 08:01:00,
2013-04-28 03:06:00,45.7,27.1,29.82,SSE,160,0.0,0.0,48,0.00,,CLR,0.00,VWS V14.01,2013-04-28 08:06:00,
2013-04-28 03:11:00,45.7,27.1,29.82,SSE,160,0.0,0.0,48,0.00,,CLR,0.00,VWS V14.01,2013-04-28 08:11:00,
2013-04-28 03:16:00,45.1,26.1,29.82,SSE,160,0.0,0.0,47,0.00,,CLR,0.00,VWS V14.01,2013-04-28 08:16:00,
2013-04-28 03:22:00,44.2,25.8,29.82,SSE,160,0.0,0.0,48,0.00,,CLR,0.00,VWS V14.01,2013-04-28 08:22:00,
2013-04-28 03:27:00,44.1,25.6,29.82,SSE,160,0.0,0.0,48,0.00,,CLR,0.00,VWS V14.01,2013-04-28 08:27:00,
2013-04-28 03:33:00,43.7,25.3,29.82,SSE,160,0.0,0.0,48,0.00,,CLR,0.00,VWS V14.01,2013-04-28 08:33:00,
2013-04-28 03:39:00,43.5,25.1,29.82,SSE,160,0.0,0.0,48,0.00,,CLR,0.00,VWS V14.01,2013-04-28 08:39:00,
2013-04-28 03:44:00,43.5,25.1,29.82,SSE,160,0.0,0.0,48,0.00,,CLR,0.00,VWS V14.01,2013-04-28 08:44:00,
2013-04-28 03:50:00,43.5,25.6,29.82,SSE,160,0.0,0.0,49,0.00,,CLR,0.00,VWS V14.01,2013-04-28 08:50:00,
2013-04-28 03:55:00,43.3,25.5,29.82,SSE,160,0.0,0.0,49,0.00,,CLR,0.00,VWS V14.01,2013-04-28 08:55:00,
2013-04-28 04:01:00,43.3,25.5,29.82,SSE,160,0.0,0.0,49,0.00,,CLR,0.00,VWS V14.01,2013-04-28 09:01:00,
2013-04-28 04:07:00,43.5,25.6,29.82,SSE,160,0.0,0.0,49,0.00,,CLR,0.00,VWS V14.01,2013-04-28 09:07:00,
2013-04-28 04:13:00,43.7,26.3,29.82,SSE,160,0.0,0.0,50,0.00,,CLR,0.00,VWS V14.01,2013-04-28 09:13:00,
2013-04-28 04:18:00,43.9,26.9,29.82,SSE,160,0.0,0.0,51,0.00,,CLR,0.00,VWS V14.01,2013-04-28 09:18:00,
2013-04-28 04:23:00,44.1,27.1,29.82,SSE,160,0.0,0.0,51,0.00,,CLR,0.00,VWS V14.01,2013-04-28 09:23:00,
2013-04-28 04:28:00,44.1,27.1,29.82,SSE,160,0.0,0.0,51,0.00,,CLR,0.00,VWS V14.01,2013-04-28 09:28:00,
2013-04-28 04:33:00,44.1,26.6,29.82,SSE,160,0.0,0.0,50,0.00,,CLR,0.00,VWS V14.01,2013-04-28 09:33:00,
2013-04-28 04:38:00,43.5,26.1,29.82,SSE,160,0.0,0.0,50,0.00,,CLR,0.00,VWS V14.01,2013-04-28 09:38:00,
2013-04-28 04:44:00,43.2,25.8,29.82,SSE,160,0.0,0.0,50,0.00,,CLR,0.00,VWS V14.01,2013-04-28 09:44:00,
2013-04-28 04:49:00,43.0,25.6,29.79,SSE,160,0.0,0.0,50,0.00,,CLR,0.00,VWS V14.01,2013-04-28 09:49:00,
2013-04-28 04:54:00,42.8,25.5,29.79,SSE,160,0.0,0.0,50,0.00,,CLR,0.00,VWS V14.01,2013-04-28 09:54:00,
2013-04-28 04:59:00,42.8,25.5,29.79,SSE,160,0.0,0.0,50,0.00,,CLR,0.00,VWS V14.01,2013-04-28 09:59:00,
2013-04-28 05:04:00,43.0,26.1,29.79,SSE,160,0.0,0.0,51,0.00,,CLR,0.00,VWS V14.01,2013-04-28 10:04:00,
2013-04-28 05:10:00,43.2,26.3,29.79,SSE,160,0.0,0.0,51,0.00,,CLR,0.00,VWS V14.01,2013-04-28 10:10:00,
2013-04-28 05:15:00,43.0,25.6,29.79,SSE,160,0.0,0.0,50,0.00,,CLR,0.00,VWS V14.01,2013-04-28 10:15:00,
2013-04-28 05:21:00,43.0,25.6,29.79,SSE,160,0.0,0.0,50,0.00,,CLR,0.00,VWS V14.01,2013-04-28 10:21:00,
2013-04-28 05:26:00,43.0,25.6,29.79,SSE,160,0.0,0.0,50,0.00,,CLR,0.00,VWS V14.01,2013-04-28 10:26:00,
2013-04-28 05:31:00,42.8,25.5,29.79,SSE,160,0.0,0.0,50,0.00,,CLR,0.00,VWS V14.01,2013-04-28 10:31:00,
2013-04-28 05:36:00,42.1,24.8,29.79,SSE,160,0.0,0.0,50,0.00,,CLR,0.00,VWS V14.01,2013-04-28 10:36:00,
2013-04-28 05:42:00,41.5,24.3,29.79,SSE,160,0.0,0.0,50,0.00,,CLR,0.00,VWS V14.01,2013-04-28 10:42:00,
2013-04-28 05:47:00,41.2,24.0,29.79,SSE,160,0.0,0.0,50,0.00,,CLR,0.00,VWS V14.01,2013-04-28 10:47:00,
2013-04-28 05:53:00,41.0,23.8,29.79,SSE,160,0.0,0.0,50,0.00,,CLR,0.00,VWS V14.01,2013-04-28 10:53:00,
2013-04-28 05:59:00,41.0,24.3,29.79,SSE,160,0.0,0.0,51,0.00,,CLR,0.00,VWS V14.01,2013-04-28 10:59:00,
2013-04-28 06:04:00,41.0,24.3,29.79,SSE,160,0.0,0.0,51,0.00,,CLR,0.00,VWS V14.01,2013-04-28 11:04:00,
2013-04-28 06:09:00,41.0,24.3,29.79,SSE,160,0.0,0.0,51,0.00,,CLR,0.00,VWS V14.01,2013-04-28 11:09:00,
2013-04-28 06:14:00,41.2,24.4,29.79,SSE,160,0.0,0.0,51,0.00,,CLR,0.00,VWS V14.01,2013-04-28 11:14:00,
2013-04-28 06:20:00,41.2,24.4,29.79,SSE,160,0.0,0.0,51,0.00,,CLR,0.00,VWS V14.01,2013-04-28 11:20:00,
2013-04-28 06:26:00,41.5,25.2,29.79,SSE,160,0.0,0.0,52,0.00,,CLR,0.00,VWS V14.01,2013-04-28 11:26:00,
2013-04-28 06:32:00,41.7,25.4,29.79,SSE,160,0.0,0.0,52,0.00,,CLR,0.00,VWS V14.01,2013-04-28 11:32:00,
2013-04-28 06:37:00,41.9,25.6,29.79,SSE,160,0.0,0.0,52,0.00,,CLR,0.00,VWS V14.01,2013-04-28 11:37:00,
2013-04-28 06:42:00,42.3,25.9,29.79,SSE,160,0.0,0.0,52,0.00,,CLR,0.00,VWS V14.01,2013-04-28 11:42:00,
2013-04-28 06:48:00,42.8,26.4,29.79,SSE,160,0.0,0.0,52,0.00,,CLR,0.00,VWS V14.01,2013-04-28 11:48:00,
2013-04-28 06:53:00,43.5,27.5,29.79,SSE,160,0.0,0.0,53,0.00,,CLR,0.00,VWS V14.01,2013-04-28 11:53:00,
2013-04-28 06:58:00,44.1,28.0,29.79,SSE,160,0.0,0.0,53,0.00,,CLR,0.00,VWS V14.01,2013-04-28 11:58:00,
2013-04-28 07:03:00,44.8,28.7,29.79,SSE,160,0.0,0.0,53,0.00,,CLR,0.00,VWS V14.01,2013-04-28 12:03:00,
2013-04-28 07:09:00,45.3,29.2,29.79,SSE,160,0.0,0.0,53,0.00,,CLR,0.00,VWS V14.01,2013-04-28 12:09:00,
2013-04-28 07:14:00,45.7,29.5,29.79,ESE,112,0.0,0.0,53,0.00,,CLR,0.00,VWS V14.01,2013-04-28 12:14:00,
2013-04-28 07:20:00,46.6,30.4,29.79,SE,133,5.4,5.4,53,0.00,,CLR,0.00,VWS V14.01,2013-04-28 12:20:00,
2013-04-28 07:26:00,47.7,31.4,29.79,ESE,119,3.1,5.4,53,0.00,,CLR,0.00,VWS V14.01,2013-04-28 12:26:00,
2013-04-28 07:31:00,48.6,31.8,29.79,ESE,119,2.7,3.1,52,0.00,,CLR,0.00,VWS V14.01,2013-04-28 12:31:00,
2013-04-28 07:36:00,49.3,31.9,29.79,ESE,103,2.7,4.0,51,0.00,,CLR,0.00,VWS V14.01,2013-04-28 12:36:00,
2013-04-28 07:42:00,50.2,31.8,29.79,ESE,103,0.0,0.0,49,0.00,,CLR,0.00,VWS V14.01,2013-04-28 12:42:00,
2013-04-28 07:48:00,51.3,32.3,29.79,ESE,103,0.0,0.0,48,0.00,,CLR,0.00,VWS V14.01,2013-04-28 12:48:00,
2013-04-28 07:53:00,52.2,32.0,29.79,ESE,102,0.0,0.0,46,0.00,,CLR,0.00,VWS V14.01,2013-04-28 12:53:00,
2013-04-28 07:58:00,52.9,30.4,29.79,ESE,102,0.0,0.0,42,0.00,,CLR,0.00,VWS V14.01,2013-04-28 12:58:00,
2013-04-28 08:03:00,53.4,29.7,29.82,ESE,102,0.0,0.0,40,0.00,,CLR,0.00,VWS V14.01,2013-04-28 13:03:00,
2013-04-28 08:08:00,54.0,29.0,29.82,ESE,102,0.0,0.0,38,0.00,,CLR,0.00,VWS V14.01,2013-04-28 13:08:00,
2013-04-28 08:14:00,54.5,28.1,29.82,ESE,102,0.0,0.0,36,0.00,,CLR,0.00,VWS V14.01,2013-04-28 13:14:00,
2013-04-28 08:20:00,55.0,28.6,29.82,ESE,102,0.0,0.0,36,0.00,,CLR,0.00,VWS V14.01,2013-04-28 13:20:00,
2013-04-28 08:25:00,55.4,28.2,29.82,East,97,0.0,0.0,35,0.00,,CLR,0.00,VWS V14.01,2013-04-28 13:25:00,
2013-04-28 08:31:00,55.9,27.3,29.82,East,90,0.0,0.0,33,0.00,,CLR,0.00,VWS V14.01,2013-04-28 13:31:00,
2013-04-28 08:36:00,55.9,25.8,29.82,East,90,0.0,0.0,31,0.00,,CLR,0.00,VWS V14.01,2013-04-28 13:36:00,
2013-04-28 08:41:00,56.3,25.3,29.82,East,90,0.0,0.0,30,0.00,,CLR,0.00,VWS V14.01,2013-04-28 13:41:00,
2013-04-28 08:46:00,56.7,24.8,29.79,East,90,0.0,0.0,29,0.00,,CLR,0.00,VWS V14.01,2013-04-28 13:46:00,
2013-04-28 08:52:00,57.0,25.1,29.79,East,93,0.0,0.0,29,0.00,,CLR,0.00,VWS V14.01,2013-04-28 13:52:00,
2013-04-28 08:58:00,57.4,24.6,29.79,East,91,0.0,0.0,28,0.00,,CLR,0.00,VWS V14.01,2013-04-28 13:58:00,
2013-04-28 09:03:00,57.9,24.2,29.79,NE,53,0.0,0.0,27,0.00,,SCT065,0.00,VWS V14.01,2013-04-28 14:03:00,
2013-04-28 09:09:00,58.6,23.9,29.79,NNE,33,0.0,0.0,26,0.00,,SCT065,0.00,VWS V14.01,2013-04-28 14:09:00,
2013-04-28 09:14:00,59.0,23.2,29.79,NE,55,0.0,3.6,25,0.00,,SCT065,0.00,VWS V14.01,2013-04-28 14:14:00,
2013-04-28 09:19:00,59.7,23.9,29.79,NNE,33,0.0,3.6,25,0.00,,SCT065,0.00,VWS V14.01,2013-04-28 14:19:00,
2013-04-28 09:24:00,60.3,23.4,29.79,NNE,15,4.9,5.8,24,0.00,,SCT065,0.00,VWS V14.01,2013-04-28 14:24:00,
2013-04-28 09:29:00,60.6,23.6,29.79,East,89,0.0,0.0,24,0.00,,SCT065,0.00,VWS V14.01,2013-04-28 14:29:00,
2013-04-28 09:34:00,61.0,24.0,29.79,NNE,19,3.6,4.9,24,0.00,,SCT065,0.00,VWS V14.01,2013-04-28 14:34:00,
2013-04-28 09:39:00,61.3,24.3,29.79,North,11,2.7,5.4,24,0.00,,SCT065,0.00,VWS V14.01,2013-04-28 14:39:00,
2013-04-28 09:44:00,61.3,24.3,29.79,NNE,30,0.0,3.6,24,0.00,,SCT065,0.00,VWS V14.01,2013-04-28 14:44:00,
2013-04-28 09:49:00,61.7,24.6,29.79,ENE,61,0.0,3.1,24,0.00,,SCT065,0.00,VWS V14.01,2013-04-28 14:49:00,
2013-04-28 09:54:00,62.2,25.0,29.79,NE,42,2.7,6.3,24,0.00,,SCT065,0.00,VWS V14.01,2013-04-28 14:54:00,
2013-04-28 09:59:00,62.2,25.0,29.76,NE,38,3.1,3.1,24,0.00,,SCT065,0.00,VWS V14.01,2013-04-28 14:59:00,
2013-04-28 10:05:00,62.2,25.0,29.76,North,11,4.0,4.0,24,0.00,,OVC080,0.00,VWS V14.01,2013-04-28 15:05:00,
2013-04-28 10:11:00,62.8,24.5,29.76,ENE,61,0.0,3.1,23,0.00,,OVC080,0.00,VWS V14.01,2013-04-28 15:11:00,
2013-04-28 10:16:00,63.1,24.8,29.76,NE,49,0.0,0.0,23,0.00,,OVC080,0.00,VWS V14.01,2013-04-28 15:16:00,
2013-04-28 10:22:00,63.5,25.1,29.76,ESE,102,3.6,5.8,23,0.00,,OVC080,0.00,VWS V14.01,2013-04-28 15:22:00,
2013-04-28 10:27:00,64.2,25.7,29.76,NNE,14,5.4,5.4,23,0.00,,OVC080,0.00,VWS V14.01,2013-04-28 15:27:00,
2013-04-28 10:33:00,64.9,26.3,29.76,ESE,113,4.0,5.8,23,0.00,,OVC080,0.00,VWS V14.01,2013-04-28 15:33:00,
2013-04-28 10:38:00,65.5,26.7,29.76,East,79,3.6,3.6,23,0.00,,OVC080,0.00,VWS V14.01,2013-04-28 15:38:00,
2013-04-28 10:44:00,66.0,27.2,29.76,East,96,6.3,6.3,23,0.00,,OVC080,0.00,VWS V14.01,2013-04-28 15:44:00,
2013-04-28 10:50:00,66.6,26.6,29.76,NNE,23,3.1,3.6,22,0.00,,OVC080,0.00,VWS V14.01,2013-04-28 15:50:00,
2013-04-28 10:55:00,66.7,24.4,29.76,SSE,166,4.0,4.0,20,0.00,,OVC080,0.00,VWS V14.01,2013-04-28 15:55:00,
2013-04-28 11:00:00,67.1,24.7,29.76,East,84,3.1,3.6,20,0.00,,OVC080,0.00,VWS V14.01,2013-04-28 16:00:00,
2013-04-28 11:05:00,67.5,25.0,29.76,East,89,3.1,4.9,20,0.00,,OVC080,0.00,VWS V14.01,2013-04-28 16:05:00,
2013-04-28 11:10:00,68.0,25.5,29.76,SSE,154,0.0,3.1,20,0.00,,OVC080,0.00,VWS V14.01,2013-04-28 16:10:00,
2013-04-28 11:15:00,67.8,25.3,29.76,ENE,59,4.5,4.5,20,0.00,,OVC080,0.00,VWS V14.01,2013-04-28 16:15:00,
2013-04-28 11:20:00,67.8,25.3,29.76,NNE,14,3.1,3.6,20,0.00,,OVC080,0.00,VWS V14.01,2013-04-28 16:20:00,
2013-04-28 11:25:00,67.5,25.0,29.76,ESE,103,4.0,5.4,20,0.00,,OVC080,0.00,VWS V14.01,2013-04-28 16:25:00,
2013-04-28 11:30:00,67.1,24.7,29.76,NE,35,2.7,5.4,20,0.00,,OVC080,0.00,VWS V14.01,2013-04-28 16:30:00,
2013-04-28 11:36:00,67.3,24.9,29.76,NNE,28,0.0,0.0,20,0.00,,OVC080,0.00,VWS V14.01,2013-04-28 16:36:00,
2013-04-28 11:42:00,67.5,25.0,29.76,ESE,123,2.2,4.0,20,0.00,,OVC080,0.00,VWS V14.01,2013-04-28 16:42:00,
2013-04-28 11:47:00,68.0,25.5,29.73,SSE,162,0.0,0.0,20,0.00,,OVC080,0.00,VWS V14.01,2013-04-28 16:47:00,
2013-04-28 11:52:00,68.2,25.6,29.73,SE,130,0.0,2.7,20,0.00,,OVC080,0.00,VWS V14.01,2013-04-28 16:52:00,
2013-04-28 11:57:00,68.2,25.6,29.73,ENE,65,0.0,4.0,20,0.00,,OVC080,0.00,VWS V14.01,2013-04-28 16:57:00,
2013-04-28 12:02:00,68.5,25.9,29.73,ENE,73,0.0,0.0,20,0.00,,OVC080,0.00,VWS V14.01,2013-04-28 17:02:00,
2013-04-28 12:07:00,68.7,26.1,29.73,SSE,152,5.8,8.1,20,0.00,,OVC080,0.00,VWS V14.01,2013-04-28 17:07:00,
2013-04-28 12:13:00,69.1,26.4,29.73,NE,44,6.3,8.1,20,0.00,,OVC080,0.00,VWS V14.01,2013-04-28 17:13:00,
2013-04-28 12:18:00,69.6,26.8,29.73,NNE,29,0.0,0.0,20,0.00,,OVC080,0.00,VWS V14.01,2013-04-28 17:18:00,
2013-04-28 12:24:00,68.7,26.1,29.73,NNE,22,0.0,3.6,20,0.00,,OVC080,0.00,VWS V14.01,2013-04-28 17:24:00,
2013-04-28 12:29:00,68.7,26.1,29.73,North,5,0.0,0.0,20,0.00,,OVC080,0.00,VWS V14.01,2013-04-28 17:29:00,
2013-04-28 12:35:00,69.4,26.7,29.73,NNE,15,0.0,3.6,20,0.00,,OVC080,0.00,VWS V14.01,2013-04-28 17:35:00,
2013-04-28 12:41:00,70.3,26.2,29.73,ESE,112,0.0,5.8,19,0.00,,OVC080,0.00,VWS V14.01,2013-04-28 17:41:00,
2013-04-28 12:46:00,70.5,23.6,29.73,South,184,6.3,6.3,17,0.00,,OVC080,0.00,VWS V14.01,2013-04-28 17:46:00,
2013-04-28 12:51:00,70.2,23.4,29.73,SSE,151,0.0,0.0,17,0.00,,OVC080,0.00,VWS V14.01,2013-04-28 17:51:00,
2013-04-28 12:56:00,70.3,26.2,29.73,NNE,19,5.8,6.3,19,0.00,,OVC080,0.00,VWS V14.01,2013-04-28 17:56:00,
2013-04-28 13:02:00,69.6,26.8,29.73,NNE,12,0.0,0.0,20,0.00,,CLR,0.00,VWS V14.01,2013-04-28 18:02:00,
2013-04-28 13:07:00,69.8,25.7,29.73,East,96,3.6,4.9,19,0.00,,CLR,0.00,VWS V14.01,2013-04-28 18:07:00,
2013-04-28 13:13:00,71.1,24.1,29.73,SE,125,2.7,7.6,17,0.00,,CLR,0.00,VWS V14.01,2013-04-28 18:13:00,
2013-04-28 13:19:00,72.0,23.4,29.70,East,97,3.1,5.8,16,0.00,,CLR,0.00,VWS V14.01,2013-04-28 18:19:00,
2013-04-28 13:24:00,72.3,23.6,29.70,ENE,75,0.0,3.6,16,0.00,,CLR,0.00,VWS V14.01,2013-04-28 18:24:00,
2013-04-28 13:29:00,72.9,24.1,29.70,SSE,162,3.6,5.4,16,0.00,,CLR,0.00,VWS V14.01,2013-04-28 18:29:00,
2013-04-28 13:34:00,72.5,23.8,29.70,West,259,0.0,0.0,16,0.00,,CLR,0.00,VWS V14.01,2013-04-28 18:34:00,
2013-04-28 13:39:00,71.4,24.4,29.70,South,186,4.0,5.8,17,0.00,,CLR,0.00,VWS V14.01,2013-04-28 18:39:00,
2013-04-28 13:45:00,70.9,23.9,29.70,SSW,206,4.0,4.0,17,0.00,,CLR,0.00,VWS V14.01,2013-04-28 18:45:00,
2013-04-28 13:50:00,70.2,23.4,29.70,South,182,4.0,5.8,17,0.00,,CLR,0.00,VWS V14.01,2013-04-28 18:50:00,
2013-04-28 13:55:00,70.2,23.4,29.70,East,89,0.0,0.0,17,0.00,,CLR,0.00,VWS V14.01,2013-04-28 18:55:00,
2013-04-28 14:01:00,70.5,23.6,29.70,SW,220,0.0,4.9,17,0.00,,CLR,0.00,VWS V14.01,2013-04-28 19:01:00,
2013-04-28 14:06:00,70.7,23.8,29.70,West,277,0.0,3.6,17,0.00,,CLR,0.00,VWS V14.01,2013-04-28 19:06:00,
2013-04-28 14:12:00,70.5,23.6,29.70,SSW,206,0.0,0.0,17,0.00,,CLR,0.00,VWS V14.01,2013-04-28 19:12:00,
2013-04-28 14:17:00,71.4,24.4,29.70,SE,131,6.3,6.3,17,0.00,,CLR,0.00,VWS V14.01,2013-04-28 19:17:00,
2013-04-28 14:23:00,73.0,24.2,29.70,SSE,158,3.1,3.1,16,0.00,,CLR,0.00,VWS V14.01,2013-04-28 19:23:00,
2013-04-28 14:28:00,73.0,24.2,29.70,NW,321,3.1,3.1,16,0.00,,CLR,0.00,VWS V14.01,2013-04-28 19:28:00,
2013-04-28 14:34:00,72.1,23.5,29.70,East,85,0.0,0.0,16,0.00,,CLR,0.00,VWS V14.01,2013-04-28 19:34:00,
2013-04-28 14:40:00,72.9,24.1,29.70,East,83,4.5,5.8,16,0.00,,CLR,0.00,VWS V14.01,2013-04-28 19:40:00,
2013-04-28 14:45:00,73.8,24.8,29.70,SSE,162,0.0,0.0,16,0.00,,CLR,0.00,VWS V14.01,2013-04-28 19:45:00,
2013-04-28 14:50:00,73.9,25.0,29.70,ESE,116,0.0,3.6,16,0.00,,CLR,0.00,VWS V14.01,2013-04-28 19:50:00,
2013-04-28 14:56:00,74.1,25.1,29.70,SE,130,0.0,4.0,16,0.00,,CLR,0.00,VWS V14.01,2013-04-28 19:56:00,
2013-04-28 15:01:00,74.3,25.2,29.67,ESE,105,0.0,6.3,16,0.00,,CLR,0.00,VWS V14.01,2013-04-28 20:01:00,
2013-04-28 15:06:00,74.8,25.7,29.67,South,173,0.0,0.0,16,0.00,,CLR,0.00,VWS V14.01,2013-04-28 20:06:00,
2013-04-28 15:12:00,74.3,25.2,29.67,North,353,0.0,0.0,16,0.00,,CLR,0.00,VWS V14.01,2013-04-28 20:12:00,
2013-04-28 15:18:00,73.6,24.7,29.67,East,101,5.4,5.4,16,0.00,,CLR,0.00,VWS V14.01,2013-04-28 20:18:00,
2013-04-28 15:24:00,74.3,25.2,29.67,NE,47,5.8,5.8,16,0.00,,CLR,0.00,VWS V14.01,2013-04-28 20:24:00,
2013-04-28 15:29:00,74.7,25.5,29.67,NE,41,0.0,0.0,16,0.00,,CLR,0.00,VWS V14.01,2013-04-28 20:29:00,
2013-04-28 15:34:00,74.8,25.7,29.67,NE,39,0.0,0.0,16,0.00,,CLR,0.00,VWS V14.01,2013-04-28 20:34:00,
2013-04-28 15:40:00,75.2,24.4,29.67,SE,146,0.0,4.0,15,0.00,,CLR,0.00,VWS V14.01,2013-04-28 20:40:00,
2013-04-28 15:45:00,75.0,25.8,29.67,South,181,2.7,4.0,16,0.00,,CLR,0.00,VWS V14.01,2013-04-28 20:45:00,
2013-04-28 15:50:00,74.7,25.5,29.67,NE,36,0.0,0.0,16,0.00,,CLR,0.00,VWS V14.01,2013-04-28 20:50:00,
2013-04-28 15:55:00,74.5,25.4,29.67,WNW,302,3.6,4.9,16,0.00,,CLR,0.00,VWS V14.01,2013-04-28 20:55:00,
2013-04-28 16:00:00,73.0,24.2,29.67,NNW,348,3.1,4.0,16,0.00,,CLR,0.00,VWS V14.01,2013-04-28 21:00:00,
2013-04-28 16:06:00,72.9,24.1,29.67,SW,229,3.1,3.6,16,0.00,,CLR,0.00,VWS V14.01,2013-04-28 21:06:00,
2013-04-28 16:11:00,72.3,23.6,29.67,SW,230,3.6,6.3,16,0.00,,CLR,0.00,VWS V14.01,2013-04-28 21:11:00,
2013-04-28 16:16:00,72.5,23.8,29.67,South,179,0.0,0.0,16,0.00,,CLR,0.00,VWS V14.01,2013-04-28 21:16:00,
2013-04-28 16:22:00,73.2,24.4,29.67,SW,221,8.1,8.1,16,0.00,,CLR,0.00,VWS V14.01,2013-04-28 21:22:00,
2013-04-28 16:27:00,73.0,24.2,29.67,SSW,204,4.0,4.9,16,0.00,,CLR,0.00,VWS V14.01,2013-04-28 21:27:00,
2013-04-28 16:33:00,72.3,23.6,29.67,SW,220,4.5,5.8,16,0.00,,CLR,0.00,VWS V14.01,2013-04-28 21:33:00,
2013-04-28 16:38:00,72.1,23.5,29.67,South,169,4.9,4.9,16,0.00,,CLR,0.00,VWS V14.01,2013-04-28 21:38:00,
2013-04-28 16:43:00,72.5,23.8,29.67,East,90,0.0,0.0,16,0.00,,CLR,0.00,VWS V14.01,2013-04-28 21:43:00,
2013-04-28 16:48:00,72.9,24.1,29.64,North,2,0.0,0.0,16,0.00,,CLR,0.00,VWS V14.01,2013-04-28 21:48:00,
2013-04-28 16:54:00,73.6,24.7,29.64,SW,230,0.0,0.0,16,0.00,,CLR,0.00,VWS V14.01,2013-04-28 21:54:00,
2013-04-28 16:59:00,73.2,24.4,29.64,SW,230,7.6,8.3,16,0.00,,CLR,0.00,VWS V14.01,2013-04-28 21:59:00,
2013-04-28 17:04:00,72.3,23.6,29.64,WNW,291,0.0,3.1,16,0.00,,CLR,0.00,VWS V14.01,2013-04-28 22:04:00,
2013-04-28 17:09:00,72.5,23.8,29.64,SSE,157,0.0,2.2,16,0.00,,CLR,0.00,VWS V14.01,2013-04-28 22:09:00,
2013-04-28 17:14:00,73.8,24.8,29.64,South,171,0.0,2.7,16,0.00,,CLR,0.00,VWS V14.01,2013-04-28 22:14:00,
2013-04-28 17:19:00,74.1,25.1,29.64,South,181,0.0,0.0,16,0.00,,CLR,0.00,VWS V14.01,2013-04-28 22:19:00,
2013-04-28 17:25:00,73.9,25.0,29.64,WSW,253,0.0,3.6,16,0.00,,CLR,0.00,VWS V14.01,2013-04-28 22:25:00,
2013-04-28 17:30:00,73.9,25.0,29.64,SW,220,5.4,6.3,16,0.00,,CLR,0.00,VWS V14.01,2013-04-28 22:30:00,
2013-04-28 17:35:00,72.3,23.6,29.64,South,191,5.4,5.8,16,0.00,,CLR,0.00,VWS V14.01,2013-04-28 22:35:00,
2013-04-28 17:40:00,72.0,23.4,29.64,South,190,3.1,3.6,16,0.00,,CLR,0.00,VWS V14.01,2013-04-28 22:40:00,
2013-04-28 17:45:00,72.3,23.6,29.64,SSE,152,0.0,0.0,16,0.00,,CLR,0.00,VWS V14.01,2013-04-28 22:45:00,
2013-04-28 17:50:00,72.9,24.1,29.64,SW,233,4.9,7.2,16,0.00,,CLR,0.00,VWS V14.01,2013-04-28 22:50:00,
2013-04-28 17:55:00,72.5,23.8,29.64,SW,233,3.1,3.1,16,0.00,,CLR,0.00,VWS V14.01,2013-04-28 22:55:00,
2013-04-28 18:00:00,72.1,23.5,29.64,South,169,3.6,4.0,16,0.00,,CLR,0.00,VWS V14.01,2013-04-28 23:00:00,
2013-04-28 18:05:00,72.1,23.5,29.64,SSW,207,3.1,4.0,16,0.00,,CLR,0.00,VWS V14.01,2013-04-28 23:05:00,
2013-04-28 18:10:00,72.0,23.4,29.64,SW,236,5.8,5.8,16,0.00,,CLR,0.00,VWS V14.01,2013-04-28 23:10:00,
2013-04-28 18:15:00,71.4,24.4,29.64,SSW,195,2.7,4.9,17,0.00,,CLR,0.00,VWS V14.01,2013-04-28 23:15:00,
2013-04-28 18:20:00,71.1,24.1,29.64,SW,222,6.3,6.3,17,0.00,,CLR,0.00,VWS V14.01,2013-04-28 23:20:00,
2013-04-28 18:25:00,70.5,23.6,29.64,West,260,4.0,6.3,17,0.00,,CLR,0.00,VWS V14.01,2013-04-28 23:25:00,
2013-04-28 18:30:00,70.2,23.4,29.64,SW,219,0.0,2.7,17,0.00,,CLR,0.00,VWS V14.01,2013-04-28 23:30:00,
2013-04-28 18:35:00,70.2,23.4,29.64,SW,231,2.7,2.7,17,0.00,,CLR,0.00,VWS V14.01,2013-04-28 23:35:00,
2013-04-28 18:40:00,70.2,23.4,29.64,SW,229,0.0,0.0,17,0.00,,CLR,0.00,VWS V14.01,2013-04-28 23:40:00,
2013-04-28 18:45:00,69.8,23.1,29.64,SSW,196,0.0,3.1,17,0.00,,CLR,0.00,VWS V14.01,2013-04-28 23:45:00,
2013-04-28 18:50:00,69.4,22.8,29.64,SSW,197,0.0,0.0,17,0.00,,CLR,0.00,VWS V14.01,2013-04-28 23:50:00,
2013-04-28 18:55:00,69.3,22.6,29.64,SSW,198,0.0,2.2,17,0.00,,CLR,0.00,VWS V14.01,2013-04-28 23:55:00,
2013-04-28 19:00:00,68.9,22.3,29.64,SSW,198,0.0,0.0,17,0.00,,CLR,0.00,VWS V14.01,2013-04-29 00:00:00,
2013-04-28 19:05:00,68.7,22.2,29.64,SSW,194,0.0,0.0,17,0.00,,CLR,0.00,VWS V14.01,2013-04-29 00:05:00,
2013-04-28 19:10:00,68.4,21.9,29.64,SSW,194,0.0,0.0,17,0.00,,CLR,0.00,VWS V14.01,2013-04-29 00:10:00,
2013-04-28 19:15:00,68.2,21.7,29.64,SW,216,0.0,0.0,17,0.00,,CLR,0.00,VWS V14.01,2013-04-29 00:15:00,
2013-04-28 19:20:00,68.0,21.6,29.64,SW,216,0.0,0.0,17,0.00,,CLR,0.00,VWS V14.01,2013-04-29 00:20:00,
2013-04-28 19:26:00,67.8,21.5,29.64,SW,216,0.0,0.0,17,0.00,,CLR,0.00,VWS V14.01,2013-04-29 00:26:00,
2013-04-28 19:31:00,67.6,21.3,29.64,SW,217,0.0,0.0,17,0.00,,CLR,0.00,VWS V14.01,2013-04-29 00:31:00,
2013-04-28 19:36:00,67.3,21.0,29.64,SW,217,0.0,0.0,17,0.00,,CLR,0.00,VWS V14.01,2013-04-29 00:36:00,
2013-04-28 19:41:00,66.9,20.7,29.64,SW,217,0.0,0.0,17,0.00,,CLR,0.00,VWS V14.01,2013-04-29 00:41:00,
2013-04-28 19:47:00,66.6,20.4,29.64,SW,217,0.0,0.0,17,0.00,,CLR,0.00,VWS V14.01,2013-04-29 00:47:00,
2013-04-28 19:52:00,66.0,21.3,29.64,SW,217,0.0,0.0,18,0.00,,CLR,0.00,VWS V14.01,2013-04-29 00:52:00,
2013-04-28 19:57:00,65.7,23.5,29.64,SW,217,0.0,0.0,20,0.00,,CLR,0.00,VWS V14.01,2013-04-29 00:57:00,
2013-04-28 20:03:00,65.5,23.4,29.64,SW,217,0.0,0.0,20,0.00,,CLR,0.00,VWS V14.01,2013-04-29 01:03:00,
2013-04-28 20:08:00,64.9,22.9,29.64,SW,217,0.0,0.0,20,0.00,,CLR,0.00,VWS V14.01,2013-04-29 01:08:00,
2013-04-28 20:13:00,64.4,22.5,29.64,ESE,115,5.4,5.4,20,0.00,,CLR,0.00,VWS V14.01,2013-04-29 01:13:00,
2013-04-28 20:18:00,63.9,23.2,29.64,SE,129,4.0,8.1,21,0.00,,CLR,0.00,VWS V14.01,2013-04-29 01:18:00,
2013-04-28 20:24:00,63.1,22.6,29.64,East,100,6.3,6.7,21,0.00,,CLR,0.00,VWS V14.01,2013-04-29 01:24:00,
2013-04-28 20:29:00,62.4,22.0,29.64,ESE,113,6.3,7.6,21,0.00,,CLR,0.00,VWS V14.01,2013-04-29 01:29:00,
2013-04-28 20:35:00,61.7,24.6,29.64,ESE,105,4.0,5.8,24,0.00,,CLR,0.00,VWS V14.01,2013-04-29 01:35:00,
2013-04-28 20:40:00,61.2,24.1,29.64,SE,124,5.8,5.8,24,0.00,,CLR,0.00,VWS V14.01,2013-04-29 01:40:00,
2013-04-28 20:46:00,60.6,23.6,29.67,ESE,108,2.7,4.0,24,0.00,,CLR,0.00,VWS V14.01,2013-04-29 01:46:00,
2013-04-28 20:51:00,60.4,24.5,29.67,ESE,110,6.3,7.6,25,0.00,,CLR,0.00,VWS V14.01,2013-04-29 01:51:00,
2013-04-28 20:57:00,59.9,24.0,29.67,ESE,111,3.1,5.4,25,0.00,,CLR,0.00,VWS V14.01,2013-04-29 01:57:00,
2013-04-28 21:03:00,59.5,23.7,29.67,SE,126,5.8,7.6,25,0.00,,CLR,0.00,VWS V14.01,2013-04-29 02:03:00,
2013-04-28 21:09:00,59.2,23.4,29.67,ESE,120,5.8,5.8,25,0.00,,CLR,0.00,VWS V14.01,2013-04-29 02:09:00,
2013-04-28 21:14:00,59.0,23.2,29.67,SE,140,3.6,4.9,25,0.00,,CLR,0.00,VWS V14.01,2013-04-29 02:14:00,
2013-04-28 21:19:00,58.6,23.9,29.67,SSE,166,3.1,5.8,26,0.00,,CLR,0.00,VWS V14.01,2013-04-29 02:19:00,
2013-04-28 21:24:00,58.5,23.7,29.67,SE,126,4.0,4.5,26,0.00,,CLR,0.00,VWS V14.01,2013-04-29 02:24:00,
2013-04-28 21:29:00,58.1,23.4,29.67,SSE,150,2.7,6.3,26,0.00,,CLR,0.00,VWS V14.01,2013-04-29 02:29:00,
2013-04-28 21:34:00,57.9,24.2,29.67,SSE,162,3.1,5.4,27,0.00,,CLR,0.00,VWS V14.01,2013-04-29 02:34:00,
2013-04-28 21:40:00,57.6,24.7,29.67,ESE,111,3.6,3.6,28,0.00,,CLR,0.00,VWS V14.01,2013-04-29 02:40:00,
2013-04-28 21:45:00,57.4,25.4,29.67,SE,127,4.0,4.0,29,0.00,,CLR,0.00,VWS V14.01,2013-04-29 02:45:00,
2013-04-28 21:51:00,57.2,26.1,29.67,East,99,2.7,4.0,30,0.00,,CLR,0.00,VWS V14.01,2013-04-29 02:51:00,
2013-04-28 21:56:00,57.0,29.0,29.67,SSE,167,2.7,3.6,34,0.00,,CLR,0.00,VWS V14.01,2013-04-29 02:56:00,
2013-04-28 22:02:00,56.8,29.5,29.67,SSE,164,4.0,4.9,35,0.00,,CLR,0.00,VWS V14.01,2013-04-29 03:02:00,
2013-04-28 22:08:00,56.5,29.2,29.67,SSE,161,0.0,3.1,35,0.00,,CLR,0.00,VWS V14.01,2013-04-29 03:08:00,
2013-04-28 22:13:00,56.3,29.0,29.67,SSE,161,3.1,4.0,35,0.00,,CLR,0.00,VWS V14.01,2013-04-29 03:13:00,
2013-04-28 22:19:00,56.1,29.5,29.67,South,183,4.0,4.9,36,0.00,,CLR,0.00,VWS V14.01,2013-04-29 03:19:00,
2013-04-28 22:24:00,56.1,30.2,29.67,SE,137,4.9,6.3,37,0.00,,CLR,0.00,VWS V14.01,2013-04-29 03:24:00,
2013-04-28 22:30:00,56.1,30.2,29.67,South,173,5.4,5.8,37,0.00,,CLR,0.00,VWS V14.01,2013-04-29 03:30:00,
2013-04-28 22:35:00,55.9,30.1,29.67,SSE,166,6.3,8.7,37,0.00,,CLR,0.00,VWS V14.01,2013-04-29 03:35:00,
2013-04-28 22:41:00,55.9,30.1,29.67,SE,145,6.3,6.3,37,0.00,,CLR,0.00,VWS V14.01,2013-04-29 03:41:00,
2013-04-28 22:47:00,55.9,30.1,29.67,SSE,158,5.4,5.4,37,0.00,,CLR,0.00,VWS V14.01,2013-04-29 03:47:00,
2013-04-28 22:52:00,55.8,29.9,29.67,SSE,161,4.0,4.9,37,0.00,,CLR,0.00,VWS V14.01,2013-04-29 03:52:00,
2013-04-28 22:57:00,55.6,29.7,29.67,South,174,4.0,4.0,37,0.00,,CLR,0.00,VWS V14.01,2013-04-29 03:57:00,
2013-04-28 23:01:00,55.4,30.2,29.67,South,171,3.6,4.9,38,0.00,,CLR,0.00,VWS V14.01,2013-04-29 04:01:00,
2013-04-28 23:02:00,55.4,30.2,29.67,SSE,158,5.4,5.4,38,0.00,,CLR,0.00,VWS V14.01,2013-04-29 04:02:00,
2013-04-28 23:03:00,55.2,30.1,29.67,SSE,147,5.4,5.4,38,0.00,,CLR,0.00,VWS V14.01,2013-04-29 04:03:00,
2013-04-28 23:04:00,55.2,30.1,29.67,South,170,4.0,5.4,38,0.00,,CLR,0.00,VWS V14.01,2013-04-29 04:04:00,
2013-04-28 23:09:00,55.0,29.9,29.67,SSE,157,3.1,3.6,38,0.00,,CLR,0.00,VWS V14.01,2013-04-29 04:09:00,
2013-04-28 23:14:00,54.9,30.4,29.67,SSE,167,2.7,3.6,39,0.00,,CLR,0.00,VWS V14.01,2013-04-29 04:14:00,
2013-04-28 23:19:00,54.5,30.1,29.67,SSE,153,4.0,4.0,39,0.00,,CLR,0.00,VWS V14.01,2013-04-29 04:19:00,
2013-04-28 23:25:00,54.3,30.5,29.67,South,176,5.4,5.8,40,0.00,,CLR,0.00,VWS V14.01,2013-04-29 04:25:00,
2013-04-28 23:30:00,54.1,30.4,29.67,SSE,154,4.0,5.8,40,0.00,,CLR,0.00,VWS V14.01,2013-04-29 04:30:00,
2013-04-28 23:36:00,54.0,30.8,29.67,SSE,160,4.0,5.4,41,0.00,,CLR,0.00,VWS V14.01,2013-04-29 04:36:00,
2013-04-28 23:41:00,53.8,31.2,29.67,SSE,162,2.7,4.9,42,0.00,,CLR,0.00,VWS V14.01,2013-04-29 04:41:00,
2013-04-28 23:47:00,53.6,31.1,29.67,SSE,167,4.0,4.9,42,0.00,,CLR,0.00,VWS V14.01,2013-04-29 04:47:00,
2013-04-28 23:53:00,53.4,31.5,29.67,SSE,165,2.7,4.0,43,0.00,,CLR,0.00,VWS V14.01,2013-04-29 04:53:00,
2013-04-28 23:58:00,53.2,31.9,29.67,SSE,168,0.0,0.0,44,0.00,,CLR,0.00,VWS V14.01,2013-04-29 04:58:00,